Regional Weather Roundup
Issued by NWS Charleston, SC

Home | Current Version | Previous Version | Text Only | Print | Product List | Glossary On
Versions: 1 2 3 4 5 6 7 8 9 10 11 12 13 14 15 16 17 18 19 20 21 22 23 24 25 26 27 28 29 30 31 32 33 34 35 36 37 38 39 40 41 42 43 44 45 46 47 48 49 50
674
ASUS42 KCHS 092327
RWRCHS

REGIONAL WEATHER ROUNDUP
NATIONAL WEATHER SERVICE CHARLESTON SC
600 PM EST TUE FEB 09 2016

NOTE: "FAIR" INDICATES FEW OR NO CLOUDS BELOW 12,000 FEET WITH NO
SIGNIFICANT WEATHER AND/OR OBSTRUCTIONS TO VISIBILITY.

NOT ALL STATIONS ARE QUALITY CONTROLLED BY THE NATIONAL
WEATHER SERVICE. USE DATA WITH CAUTION...ESPECIALLY
DEWPOINT OBSERVATIONS.

SCZ027-030-031-034>040-042>050-100000-
...SOUTHEAST SOUTH CAROLINA...

CITY           SKY/WX    TMP DP  RH WIND       PRES   REMARKS
N CHARLESTON   MOCLDY    42  20  41 W16G25    29.87R
WATERFRONT PRK   N/A     43  23  45 W12       29.70R
MOUNT PLEASANT CLOUDY    43  23  45 W13G21    29.87R
JOHNS ISLAND   CLOUDY    43  23  45 W8G20     29.88R
PINOPOLIS        N/A     43  25  49 W22       29.76R
MONCKS CORNER  MOCLDY    37  18  44 W8        29.87R WCI  31
SUMMERVILLE    MOCLDY    41  25  52 W14G21    29.89R
BEAUFORT MCAS  CLOUDY    43  22  43 W8        29.88R
BEAUFORT ARPT  FAIR      43  23  45 W10G16    29.88R HAZE
HILTON HEAD IS PTCLDY    45  27  49 W9        29.89R
WALTERBORO     CLOUDY    41  25  52 W9        29.90R
ALLENDALE      CLOUDY    39  23  52 CALM      29.89R

...SOUTHERN MIDLANDS AND PEE DEE...

CITY           SKY/WX    TMP DP  RH WIND       PRES   REMARKS
GEORGETOWN     NOT AVBL
KINGSTREE      NOT AVBL
ORANGEBURG     CLOUDY    40  20  44 W13       29.86R WCI  32
BARNWELL       MOCLDY    39  23  52 W12       29.89R WCI  32
AIKEN          CLOUDY    36  21  55 W7        29.89R WCI  30
MANNING        CLOUDY    37  23  56 W5        29.86R WCI  34
COLUMBIA       CLOUDY    39  23  52 W22G32    29.86R WCI  29
SUMTER         CLOUDY    39  23  54 W14G23    29.81R WCI  30
FLORENCE       CLOUDY    40  23  50 W14G21    29.81R WCI  32
MYRTLE BEACH   CLOUDY    43  23  45 W18G24    29.83R
N MYRTLE BEACH CLOUDY    42  26  53 W10       29.80R

$$

GAZ063-065-086>088-099>101-113>116-118-119-134>141-150-100000-
...SOUTHEAST GEORGIA...

CITY           SKY/WX    TMP DP  RH WIND       PRES   REMARKS
SAVANNAH ARPT  MOCLDY    44  23  43 NW12      29.89R
HUNTER AAF     MOCLDY    46  23  41 W14       29.86R
FORT STEWART   MOCLDY    46  22  39 W8        29.86R
STATESBORO     CLOUDY    46  17  31 NW10      29.90R
SYLVANIA       CLOUDY    42  28  55 NW10      29.90R
CLAXTON        CLOUDY    45  28  52 W9        29.90R

...CSRA...CENTRAL AND FAR SOUTHEAST GEORGIA...

CITY           SKY/WX    TMP DP  RH WIND       PRES   REMARKS
THOMSON        CLOUDY    39  26  60 NW16G22   29.95R WCI  30
AUGUSTA-BUSH   CLOUDY    39  21  48 W21G26    29.89R WCI  29
AUGUSTA-DANIEL CLOUDY    39  20  46 W10G18    29.88R WCI  32
SWAINSBORO     CLOUDY    41  25  52 NW13      29.92R
VIDALIA        CLOUDY    43  23  45 NW14      29.92R
EASTMAN        CLOUDY    42  20  40 W10G20    29.97R
HAZLEHURST     CLOUDY    46  20  36 NW9G17    29.91R
ALMA           MOCLDY    47  20  34 W14G22    29.90R
WAYCROSS       CLEAR     49  26  39 NW15      29.91R
JESUP          FAIR      48  28  46 NW9       29.90R
BAXLEY         MOCLDY    46  23  39 W9        29.91R
BRUNSWICK      CLEAR     48  23  37 W7        29.90R
SAINT SIMONS   CLEAR     49  21  33 W8        29.88R

$$

SCZ027-028-034-036>038-045-046-048>050-GAZ119-141-100000-
...LAKE AND SUPPLEMENTAL COASTAL OBSERVATIONS...

STATION/POSITION TIME  TEMP    WIND        PRES    WAVE   SWELL
                       AIR SEA DIR/SP/G            HT/PER HT/PER/DIR
                 (UTC) (F)     (DEG/KT/KT) (MB)    (FT/S) (FT/S/D)
WINYAH BAY       2200   43     270/ 10     1008.0R
LAKE MURRAY      2200   38     240/ 15/ 22 1009.1R
ACE BASIN NERRS  2245   42     280/  4     1011.0R
FORT PULASKI     2300   44 51  300/  9/ 11 1012.1R
SAPELO ISLAND    2300   49     270/ 11     1012.0R

$$

ANZ835-935-AMZ111-154-330-350-352-354-370-450-454-472-100000-
...C-MAN AND BUOY OBSERVATIONS...

STATION/POSITION TIME  TEMP    WIND        PRES    WAVE   SWELL
                       AIR SEA DIR/SP/G            HT/PER HT/PER/DIR
                 (UTC) (F)     (DEG/KT/KT) (MB)    (FT/S) (FT/S/D)
BUOY 41004       2250   47 65  270/ 29/ 37 1009.7R   9/ 8   2/13
BUOY 41008       2250   50 55  280/ 19/ 25 1011.4R   4/ 5
FOLLY BEACH CMAN 2300   42     270/  7/ 11 1011.5R
CAPERS NEARSHORE 2208   45     260/ 21/ 29 1009.7R
FRIPP NEARSHORE  2200   45     310/ 17/ 21 1010.8R


STATION/POSITION TIME  TEMP    WIND        PRES    WAVE   SWELL
                       AIR SEA DIR/SP/G            HT/PER HT/PER/DIR
                 (UTC) (F)     (DEG/KT/KT) (MB)    (FT/S) (FT/S/D)
5E ST. MARYS GA  2221      56                N/A     3/ 3   2/ 80/14
FRYING PAN BUOY  2300   47 53  260/ 25/ 31 1008.5R
BUOY 41025       2250   50 74  260/ 23/ 31 1004.2R  10/15   8/110/15
CAPE LOOKOUT NC  NOT AVBL
BUOY 41002       2250   59 69  260/ 31/ 41   N/A    17/10  11/270/10
BUOY 41010       2220   61 72              1013.4F
ST AUGUSTINE FL  2300   54 57  250/ 15/ 19 1012.8R


$$




USA.gov is the U.S. government's official web portal to all federal, state and local government web resources and services.